Location: *
(46.4000°N, 12.6667°E)
Time: 04:47:07
(UTC+00:00)

RESURS DK-1 - Pass Details

Date: 09 April 2020
Orbit: 557 x 561 km, 69.9° (Epoch: 01 June)

Event Time Altitude Azimuth Distance (km) Brightness Sun altitude
Rises 19:07:14 0° 343° (NNW) 2,761 6.6 -13.4°
Reaches altitude 10° 19:10:06 10° 3° (N) 1,860 5.3 -13.9°
Maximum altitude 19:12:54 17° 46° (NE) 1,440 4.3 -14.3°
Enters shadow 19:14:25 15° 72° (ENE) 1,570 4.2 -14.5°
